1340496027146,17.7631
1340496087146,17.7216
1340496147146,17.6906
1340496207146,17.6857
1340496267146,17.7297
1340496327146,17.7119
1340496387146,17.6481
1340496447146,17.7281
1340496507146,17.7791
1340496567146,17.7604
1340496627146,17.7542
1340496687146,17.7246
1340496747146,17.8001
1340496807146,17.7785
1340496867146,17.7829
1340496927146,17.8020
1340496987146,17.7662
1340497047146,17.7611
1340497107146,17.7269
1340497167146,17.7819
1340497227146,17.7697
1340497287146,17.7502
1340497347146,17.8874
1340497407146,17.7577
1340497467146,17.7548
1340497527146,17.7609
1340497587146,17.7276
1340497647146,17.7331
1340497707146,17.7778
1340497767146,17.7174
1340497827146,17.7027
1340497887146,17.7634
1340497947146,17.7554
1340498007146,17.7998
1340498067146,17.7339
1340498127146,17.7448
1340498187146,17.7961
1340498247146,17.7703
1340498307146,17.7660
1340498367146,17.7325
1340498427146,17.7422
1340498487146,17.7594
1340498547146,17.7432
1340498607146,17.7338
1340498667146,17.6593
1340498727146,17.7202
1340498787146,17.7019
1340498847146,17.7396
1340498907146,17.7288
1340498967146,17.7153
1340499027146,17.6944
1340499087146,17.6839
1340499147146,17.7294
1340499207146,17.6789
1340499267146,17.7131
1340499327146,17.7511
1340499387146,17.7216
1340499447146,17.7104
1340499507146,17.6954
1340499567146,17.7464
1340499627156,17.7114
1340499687156,17.7006
1340499747156,17.7202
1340499807156,17.7552
1340499867156,17.7564
1340499927156,17.7191
1340499987156,17.6714
1340500047156,17.7254
1340500107156,17.7724
1340500167156,17.6923
1340500227156,17.6893
1340500287156,17.7550
1340500347156,17.7087
1340500407156,17.7239
1340500467156,17.7277
1340500527156,17.6815
1340500587156,17.6780
1340500647156,17.7800
1340500707156,17.7097
1340500767156,17.7249
1340500827156,17.7512
1340500887156,17.7596
1340500947156,17.7535
1340501007156,17.7391
1340501067156,17.7821
1340501127156,17.7127
1340501187156,17.7066
1340501247156,17.6787
1340501307156,17.6719
1340501367156,17.6702
1340501427156,17.6837
1340501487156,17.6616
1340501547156,17.7267
1340501607156,17.6784
1340501667156,17.6793
1340501727156,17.6857
1340501787156,17.6249
1340501847156,17.6754
1340501907156,17.6584
1340501967156,17.6567
1340502027156,17.6318
1340502087156,17.6308
1340502147156,17.6284
1340502207156,17.6665
1340502267156,17.7175
1340502327156,17.6767
1340502387156,17.7014
1340502447156,17.7057
1340502507156,17.6879
1340502567156,17.7103
1340502627156,17.7276
1340502687156,17.6895
1340502747156,17.6236
1340502807156,17.7040
1340502867156,17.6044
1340502927156,17.6810
1340502987156,17.6473
1340503047156,17.6868
1340503107156,17.7126
1340503167156,17.6831
1340503227166,17.6722
1340503287166,17.6582
1340503347166,17.6489
1340503407166,17.6622
1340503467166,17.6711
1340503527166,17.6398
1340503587166,17.6736
1340503647166,17.6200
1340503707166,17.6759
1340503767166,17.7227
1340503827166,17.6486
1340503887166,17.6476
1340503947166,17.6742
1340504007166,17.6432
1340504067166,17.6823
1340504127166,17.6509
1340504187166,17.6737
1340504247166,17.6459
1340504307166,17.6520
1340504367166,17.6767
1340504427166,17.6159
1340504487166,17.6317
1340504547166,17.6987
1340504607166,17.7112
1340504667166,17.6761
1340504727166,17.6524
1340504787166,17.6187
1340504847166,17.6523
1340504907166,17.6613
1340504967166,17.6546
1340505027166,17.6464
1340505087166,17.7384
1340505147166,17.6867
1340505207166,17.6646
1340505267166,17.6378
1340505327166,17.6897
1340505387166,17.7968
1340505447166,17.6749
1340505507166,17.6830
1340505567166,17.6857
1340505627166,17.6723
1340505687166,17.6637
1340505747166,17.6641
1340505807166,17.6222
1340505867166,17.6391
1340505927166,17.6391
1340505987166,17.6131
1340506047166,17.6528
1340506107166,17.6517
1340506167166,17.6462
1340506227166,17.6474
1340506287166,17.6619
1340506347166,17.6493
1340506407166,17.6209
1340506467166,17.5907
1340506527166,17.6748
1340506587166,17.6048
1340506647166,17.6947
1340506707166,17.6575
1340506767166,17.6706
1340506827175,17.6575
1340506887175,17.6361
1340506947175,17.6722
1340507007175,17.6567
1340507067175,17.6128
1340507127175,17.6088
1340507187175,17.6115
1340507247175,17.6878
1340507307175,17.6586
1340507367175,17.7424
1340507427175,17.6491
1340507487175,17.7365
1340507547175,17.6816
1340507607175,17.6469
1340507667175,17.6500
1340507727175,17.6598
1340507787175,17.6458
1340507847175,17.6891
1340507907175,17.6126
1340507967175,17.6544
1340508027175,17.5707
1340508087175,17.5670
1340508147175,17.6373
1340508207175,17.6373
1340508267175,17.6496
1340508327175,17.6002
1340508387175,17.6271
1340508447175,17.6726
1340508507175,17.6119
1340508567175,17.5974
1340508627175,17.6340
1340508687175,17.6545
1340508747175,17.6261
1340508807175,17.6508
1340508867175,17.6487
1340508927175,17.6446
1340508987175,17.6430
1340509047175,17.6732
1340509107175,17.6278
1340509167175,17.5744
1340509227175,17.6709
1340509287175,17.5755
1340509347175,17.6415
1340509407175,17.6146
1340509467175,17.5729
1340509527175,17.6236
1340509587175,17.5946
1340509647175,17.6258
1340509707175,17.6200
1340509767175,17.6493
1340509827175,17.6477
1340509887175,17.6988
1340509947175,17.6306
1340510007175,17.6192
1340510067175,17.6228
1340510127175,17.6415
1340510187175,17.6404
1340510247175,17.6478
1340510307175,17.7987
1340510367175,17.6547
1340510427185,17.6841
1340510487185,17.6625
1340510547185,17.6817
1340510607185,17.6483
1340510667185,17.6537
1340510727185,17.6561
1340510787185,17.6372
1340510847185,17.7162
1340510907185,17.6936
1340510967185,17.7211
1340511027185,17.7224
1340511087185,17.6829
1340511147185,17.6338
1340511207185,17.7261
1340511267185,17.7083
1340511327185,17.7248
1340511387185,17.6564
1340511447185,17.6675
1340511507185,17.6760
1340511567185,17.6969
1340511627185,17.6604
1340511687185,17.6279
1340511747185,17.6854
1340511807185,17.6329
1340511867185,17.7019
1340511927185,17.6615
1340511987185,17.7141
1340512047185,17.6591
1340512107185,17.6434
1340512167185,17.6776
1340512227185,17.6746
1340512287185,17.6923
1340512347185,17.6845
1340512407185,17.6958
1340512467185,17.6623
1340512527185,17.7031
1340512587185,17.6649
1340512647185,17.7486
1340512707185,17.7032
1340512767185,17.6165
1340512827185,17.6796
1340512887185,17.6811
1340512947185,17.6824
1340513007185,17.6654
1340513067185,17.7032
1340513127185,17.6403
1340513187185,17.5896
1340513247185,17.6690
1340513307185,17.6467
1340513367185,17.6357
1340513427185,17.6730
1340513487185,17.6214
1340513547185,17.6476
1340513607185,17.6714
1340513667185,17.6317
1340513727185,17.6733
1340513787185,17.6798
1340513847185,17.6719
1340513907185,17.6678
1340513967185,17.6748
1340514027194,17.7039
1340514087194,17.6955
1340514147194,17.7092
1340514207194,17.6654
1340514267194,17.6793
1340514327194,17.6683
1340514387194,17.6532
1340514447194,17.7266
1340514507194,17.6658
1340514567194,17.7117
1340514627194,17.5920
1340514687194,17.6513
1340514747194,17.6469
1340514807194,17.6883
1340514867194,17.7105
1340514927194,17.6814
1340514987194,17.6109
1340515047194,17.6391
1340515107194,17.6935
1340515167194,17.7083
1340515227194,17.7113
1340515287194,17.6345
1340515347194,17.6869
1340515407194,17.6843
1340515467194,17.6688
1340515527194,17.6185
1340515587194,17.6625
1340515647194,17.6786
1340515707194,17.6828
1340515767194,17.6755
1340515827194,17.7138
1340515887194,17.6425
1340515947194,17.6697
1340516007194,17.6522
1340516067194,17.7138
1340516127194,17.6337
1340516187194,17.6758
1340516247194,17.6269
1340516307194,17.6938
1340516367194,17.5877
1340516427194,17.6425
1340516487194,17.6400
1340516547194,17.6286
1340516607194,17.7108
1340516667194,17.6658
1340516727194,17.6581
1340516787194,17.6458
1340516847194,17.6870
1340516907194,17.7252
1340516967194,17.6490
1340517027194,17.6218
1340517087194,17.6394
1340517147194,17.6354
1340517207194,17.6026
1340517267194,17.6712
1340517327194,17.6142
1340517387194,17.6762
1340517447194,17.6457
1340517507194,17.6048
1340517567194,17.6596
1340517627203,17.6192
1340517687203,17.5782
1340517747203,17.6985
1340517807203,17.6553
1340517867203,17.6308
1340517927203,17.6595
1340517987203,17.6359
1340518047203,17.5846
1340518107203,17.6469
1340518167203,17.6619
1340518227203,17.5997
1340518287203,17.6236
1340518347203,17.6299
1340518407203,17.6403
1340518467203,17.6429
1340518527203,17.6750
1340518587203,17.6514
1340518647203,17.6866
1340518707203,17.7012
1340518767203,17.6147
1340518827203,17.6469
1340518887203,17.6798
1340518947203,17.6675
1340519007203,17.6423
1340519067203,17.6286
1340519127203,17.6399
1340519187203,17.5922
1340519247203,17.6811
1340519307203,17.6615
1340519367203,17.6450
1340519427203,17.6718
1340519487203,17.6734
1340519547203,17.6345
1340519607203,17.6593
1340519667203,17.6630
1340519727203,17.6537
1340519787203,17.6147
1340519847203,17.5969
1340519907203,17.6397
1340519967203,17.6126
1340520027203,17.6374
1340520087203,17.6123
1340520147203,17.6245
1340520207203,17.5734
1340520267203,17.6633
1340520327203,17.6210
1340520387203,17.5992
1340520447203,17.6243
1340520507203,17.5686
1340520567203,17.6224
1340520627203,17.5848
1340520687203,17.6520
1340520747203,17.6181
1340520807203,17.5867
1340520867203,17.6538
1340520927203,17.6530
1340520987203,17.6688
1340521047203,17.6749
1340521107203,17.5865
1340521167203,17.6219
1340521227212,17.6315
1340521287212,17.6136
1340521347212,17.6301
1340521407212,17.6755
1340521467212,17.6056
1340521527212,17.7359
1340521587212,17.7120
1340521647212,17.6134
1340521707212,17.6777
1340521767212,17.6605
1340521827212,17.7494
1340521887212,17.6626
1340521947212,17.6435
1340522007212,17.6811
1340522067212,17.6326
1340522127212,17.6708
1340522187212,17.6828
1340522247212,17.7239
1340522307212,17.5993
1340522367212,17.6592
1340522427212,17.6672
1340522487212,17.6893
1340522547212,17.7134
1340522607212,17.7258
1340522667212,17.6594
1340522727212,17.6360
1340522787212,17.7160
1340522847212,17.6192
1340522907212,17.6863
1340522967212,17.6362
1340523027212,17.6750
1340523087212,17.6702
1340523147212,17.6488
1340523207212,17.7058
1340523267212,17.6819
1340523327212,17.6565
1340523387212,17.6661
1340523447212,17.6217
1340523507212,17.6169
1340523567212,17.5864
1340523627212,17.6750
1340523687212,17.6625
1340523747212,17.7128
1340523807212,17.6798
1340523867212,17.6315
1340523927212,17.6550
1340523987212,17.6791
1340524047212,17.6695
1340524107212,17.6642
1340524167212,17.6600
1340524227212,17.6873
1340524287212,17.6750
1340524347212,17.6439
1340524407212,17.6535
1340524467212,17.6281
1340524527212,17.7038
1340524587212,17.6871
1340524647212,17.6611
1340524707212,17.6561
1340524767212,17.6164
1340524827221,17.7048
1340524887221,17.6978
1340524947221,17.7020
1340525007221,17.6164
1340525067221,17.6859
1340525127221,17.6861
1340525187221,17.6960
1340525247221,17.7345
1340525307221,17.6828
1340525367221,17.7243
1340525427221,17.7773
1340525487221,17.7340
1340525547221,17.7665
1340525607221,17.7800
1340525667221,17.7248
1340525727221,17.7783
1340525787221,17.7166
1340525847221,17.7123
1340525907221,17.7251
1340525967221,17.7151
1340526027221,17.7048
1340526087221,17.6770
1340526147221,17.6655
1340526207221,17.6791
1340526267221,17.6869
1340526327221,17.6830
1340526387221,17.6985
1340526447221,17.7283
1340526507221,17.6485
1340526567221,17.6685
1340526627221,17.6890
1340526687221,17.6822
1340526747221,17.6973
1340526807221,17.6457
1340526867221,17.7101
1340526927221,17.6353
1340526987221,17.6555
1340527047221,17.6908
1340527107221,17.6853
1340527167221,17.6645
1340527227221,17.6191
1340527287221,17.6116
1340527347221,17.6885
1340527407221,17.6077
1340527467221,17.6790
1340527527221,17.6663
1340527587221,17.6929
1340527647221,17.6527
1340527707221,17.6808
1340527767221,17.6587
1340527827221,17.6812
1340527887221,17.6544
1340527947221,17.6429
1340528007221,17.6141
1340528067221,17.6401
1340528127221,17.6441
1340528187221,17.5797
1340528247221,17.6358
1340528307221,17.6230
1340528367221,17.6315
1340528427230,17.6960
1340528487230,17.6580
1340528547230,17.6663
1340528607230,17.6558
1340528667230,17.7324
1340528727230,17.6929
1340528787230,17.6492
1340528847230,17.6220
1340528907230,17.7089
1340528967230,17.6669
1340529027230,17.6562
1340529087230,17.6336
1340529147230,17.6925
1340529207230,17.7091
1340529267230,17.6671
1340529327230,17.6808
1340529387230,17.6489
1340529447230,17.6590
1340529507231,17.7250
1340529567231,17.6780
1340529627231,17.6184
1340529687230,17.6249
1340529747230,17.6587
1340529807230,17.6617
1340529867230,17.6796
1340529927230,17.6934
1340529987230,17.6396
1340530047230,17.6842
1340530107230,17.6813
1340530167230,17.6355
1340530227230,17.6384
1340530287230,17.6879
1340530347230,17.6328
1340530407230,17.7099
1340530467230,17.6956
1340530527230,17.7005
1340530587230,17.6967
1340530647230,17.6808
1340530707230,17.6768
1340530767230,17.6571
1340530827231,17.6931
1340530887231,17.6567
1340530947231,17.6096
1340531007231,17.6840
1340531067230,17.6935
1340531127230,17.6227
1340531187230,17.6880
1340531247230,17.6861
1340531307230,17.6895
1340531367230,17.6073
1340531427230,17.6971
1340531487230,17.6859
1340531547230,17.6445
1340531607230,17.6807
1340531667230,17.6654
1340531727230,17.6595
1340531787230,17.6585
1340531847230,17.6683
1340531907230,17.6372
1340531967230,17.6591
1340532027240,17.6611
1340532087240,17.6668
1340532147240,17.6820
1340532207240,17.7425
1340532267240,17.6934
1340532327240,17.7245
1340532387240,17.6962
1340532447240,17.6591
1340532507240,17.7169
1340532567239,17.7296
1340532627239,17.7162
1340532687239,17.7658
1340532747239,17.7114
1340532807240,17.7528
1340532867240,17.7588
1340532927240,17.7253
1340532987240,17.6984
1340533047240,17.7134
1340533107240,17.6963
1340533167240,17.6905
1340533227240,17.6712
1340533287240,17.6764
1340533347240,17.6627
1340533407240,17.6880
1340533467240,17.6801
1340533527240,17.6972
1340533587240,17.6984
1340533647240,17.7227
1340533707240,17.6604
1340533767240,17.7005
1340533827240,17.6806
1340533887240,17.6729
1340533947239,17.7036
1340534007239,17.7393
1340534067239,17.6686
1340534127240,17.6280
1340534187240,17.6276
1340534247240,17.6558
1340534307240,17.6374
1340534367240,17.7238
1340534427240,17.8594
1340534487240,17.7361
1340534547240,17.7168
1340534607240,17.7647
1340534667240,17.6920
1340534727240,17.6890
1340534787240,17.6773
1340534847240,17.7350
1340534907240,17.7690
1340534967240,17.6910
1340535027240,17.6719
1340535087240,17.7332
1340535147240,17.6395
1340535207240,17.6652
1340535267239,17.6897
1340535327239,17.7603
1340535387239,17.6138
1340535447239,17.6936
1340535507240,17.6134
1340535567240,17.6377
1340535627249,17.6615
1340535687249,17.6553
1340535747249,17.6206
1340535807249,17.6167
1340535867249,17.6454
1340535927249,17.6458
1340535987249,17.6898
1340536047249,17.6898
1340536107249,17.6577
1340536167249,17.6757
1340536227249,17.7070
1340536287249,17.6705
1340536347249,17.7003
1340536407249,17.7176
1340536467249,17.6646
1340536527249,17.7016
1340536587249,17.6965
1340536647249,17.6697
1340536707249,17.6984
1340536767249,17.7138
1340536827249,17.6250
1340536887249,17.6602
1340536947249,17.7038
1340537007249,17.5947
1340537067249,17.6616
1340537127249,17.6550
1340537187249,17.6794
1340537247249,17.7076
1340537307249,17.7054
1340537367249,17.7360
1340537427249,17.6452
1340537487249,17.6199
1340537547249,17.6019
1340537607249,17.6079
1340537667249,17.6793
1340537727249,17.6760
1340537787249,17.6695
1340537847249,17.7063
1340537907249,17.7223
1340537967249,17.7117
1340538027249,17.6877
1340538087249,17.6821
1340538147249,17.7100
1340538207249,17.6514
1340538267249,17.6932
1340538327249,17.7047
1340538387249,17.7333
1340538447249,17.7103
1340538507249,17.7098
1340538567249,17.7509
1340538627249,17.7016
1340538687249,17.6658
1340538747249,17.7092
1340538807249,17.6774
1340538867249,17.7283
1340538927249,17.7609
1340538987249,17.7655
1340539047249,17.6900
1340539107249,17.7138
1340539167249,17.8026
1340539227258,17.7780
1340539287258,17.7745
1340539347258,17.8199
1340539407258,17.7755
1340539467258,17.8007
1340539527258,17.8612
1340539587258,17.7612
1340539647258,17.7807
1340539707258,17.7934
1340539767258,17.7748
1340539827258,17.7978
1340539887258,17.7915
1340539947258,17.7602
1340540007258,17.8186
1340540067258,17.8501
1340540127258,17.8165
1340540187258,17.8088
1340540247258,17.8371
1340540307258,17.7710
1340540367258,17.7984
1340540427258,17.8030
1340540487258,17.7207
1340540547258,17.7820
1340540607258,17.8029
1340540667258,17.7812
1340540727258,17.7517
1340540787258,17.8291
1340540847258,17.7711
1340540907258,17.8580
1340540967258,17.8002
1340541027258,17.7916
1340541087258,17.7535
1340541147258,17.7777
1340541207258,17.8160
1340541267258,17.7297
1340541327258,17.7716
1340541387258,17.7683
1340541447258,17.6805
1340541507258,17.7071
1340541567258,17.7298
1340541627258,17.7760
1340541687258,17.6419
1340541747258,17.7173
1340541807258,17.7353
1340541867258,17.7733
1340541927258,17.7250
1340541987258,17.7560
1340542047258,17.7194
1340542107258,17.7213
1340542167258,17.7623
1340542227258,17.7603
1340542287258,17.7532
1340542347258,17.7222
1340542407258,17.6788
1340542467258,17.7263
1340542527258,17.7394
1340542587258,17.7285
1340542647258,17.6849
1340542707258,17.6893
1340542767258,17.6891
1340542827267,17.7132
1340542887267,17.7027
1340542947267,17.7277
1340543007267,17.7580
1340543067267,17.6547
1340543127267,17.7268
1340543187267,17.7334
1340543247267,17.7449
1340543307267,17.6815
1340543367267,17.7648
1340543427267,17.7279
1340543487267,17.6998
1340543547267,17.7546
1340543607267,17.7349
1340543667267,17.7341
1340543727267,17.6925
1340543787267,17.7492
1340543847267,17.7160
1340543907267,17.7109
1340543967267,17.7389
1340544027267,17.7078
1340544087267,17.7231
1340544147267,17.6908
1340544207267,17.7059
1340545347267,17.7321
1340545407267,17.1257
1340545467267,17.7292
1340545527267,17.7493
1340545587267,17.7096
1340545647267,17.8417
1340545707267,17.7628
1340545767267,17.8056
1340545827267,17.7836
1340545887267,17.7894
1340545947267,17.7718
1340546007267,17.7779
1340546067267,17.7806
1340546127267,17.6969
1340546187267,17.6945
1340546247267,17.7419
1340546307267,17.7171
1340546367267,17.7585
1340546427276,17.7226
1340546487276,17.7626
1340546547276,17.7352
1340546607276,17.7650
1340546667276,17.7837
1340546727276,17.7676
1340546787276,17.7750
1340546847276,17.7822
1340546907276,17.7806
1340546967276,17.8109
1340547027276,17.8004
1340547087276,17.8303
1340547147276,17.8046
1340547207276,17.8034
1340547267276,17.7848
1340547327276,17.7548
1340547387276,17.7639
1340547447276,17.7893
1340547507276,17.8441
1340547567276,17.8076
1340547627276,17.7939
1340547687276,17.8017
1340547747276,17.8272
1340547807276,17.8071
1340547867276,17.7286
1340547927276,17.7982
1340547987276,17.8005
1340548047276,17.8389
1340548107276,17.7830
1340548167276,17.7864
1340548227276,17.8006
1340548287276,17.8226
1340548347276,17.7726
1340548407276,17.8146
1340548467276,17.7971
1340548527276,17.7808
1340548587276,17.7937
1340548647276,17.7806
1340548707276,17.8238
1340548767276,17.7740
1340548827276,17.7931
1340548887276,17.7436
1340548947276,17.7567
1340549007276,17.7573
1340549067276,17.7821
1340549127276,17.7248
1340549187276,17.7696
1340549247276,17.7296
1340549307276,17.8110
1340549367276,17.7624
1340549427276,17.8053
1340549487276,17.7853
1340549547276,17.7929
1340549607276,17.7647
1340549667276,17.8310
1340549727276,17.7767
1340549787276,17.8748
1340549847276,17.8490
1340549907276,17.8325
1340549967276,17.8415
1340550027285,17.8313
1340550087285,17.8747
1340550147285,17.8450
1340550207285,17.8935
1340550267285,17.9154
1340550327285,17.8990
1340550387285,17.9678
1340550447285,17.9437
1340550507285,17.8995
1340550567285,17.9357
1340550627285,17.9880
1340550687285,18.0070
1340550747285,17.9509
1340550807285,17.9264
1340550867285,17.8653
1340550927285,17.9869
1340550987285,17.9256
1340551047285,17.9543
1340551107285,17.9321
1340551167285,17.9187
1340551227285,17.9250
1340551287285,17.9003
1340551347285,17.9061
1340551407285,17.9144
1340551467285,17.9144
1340551527285,17.8749
1340551587285,17.9233
1340551647285,17.9393
1340551707285,17.8592
1340551767285,17.9266
1340551827285,17.9224
1340551887285,17.9107
1340551947285,17.8805
1340552007285,17.9023
1340552067285,17.8706
1340552127285,17.8916
1340552187285,17.9519
1340552247285,17.9269
1340552307285,17.9032
1340552367285,17.8781
1340552427285,17.9155
1340552487285,17.9442
1340552547285,17.8862
1340552607285,17.8354
1340552667285,17.8751
1340552727285,17.8945
1340552787285,17.8500
1340552847285,17.8938
1340552907285,17.8425
1340552967285,17.8953
1340553027285,17.8533
1340553087285,17.8304
1340553147285,17.7924
1340553207285,17.8611
1340553267285,17.8571
1340553327285,17.8486
1340553387285,17.8130
1340553447285,17.8477
1340553507285,17.8956
1340553567285,17.8027
1340553627295,17.9091
1340553687295,17.8820
1340553747295,17.8149
1340553807295,17.8785
1340553867295,17.7881
1340553927295,17.7885
1340553987295,17.7900
1340554047295,17.8790
1340554107295,17.4210
1340554167295,17.5758
1340554227295,17.7920
1340554287295,17.8756
1340554347295,17.8694
1340554407295,17.8585
1340554467295,17.8115
1340554527295,17.8229
1340554587295,17.8350
1340554647295,17.8663
1340554707295,17.8315
1340554767295,17.8578
1340554827295,17.8441
1340554887295,17.8397
1340554947295,17.7845
1340555007295,17.8363
1340555067295,17.7468
1340555127295,17.8302
1340555187295,17.7889
1340555247295,17.7950
1340555307295,17.8409
1340555367295,17.8636
1340555427295,17.8093
1340555487295,17.8483
1340555547295,17.8420
1340555607295,17.8078
1340555667295,17.8807
1340555727295,17.8302
1340555787295,17.8322
1340555847295,17.8392
1340555907295,17.8235
1340555967295,17.8593
1340556027295,17.8155
1340556087295,17.8247
1340556147295,17.8414
1340556207295,17.8657
1340556267295,17.7754
1340556327295,17.8177
1340556387295,17.8011
1340556447295,17.8607
1340556507295,17.8476
1340556567295,17.7777
1340556627295,17.8198
1340556687295,17.8564
1340556747295,17.8388
1340556807295,17.7885
1340556867295,17.7988
1340556927295,17.8142
1340556987295,17.8208
1340557047295,17.8297
1340557107295,17.8487
1340557167295,17.9155
1340557227305,17.8056
1340557287305,17.7630
1340557347305,17.8132
1340557407305,17.8113
1340557467305,17.7737
1340557527305,17.7418
1340557587305,17.8044
1340557647305,17.7969
1340557707305,17.7897
1340557767305,17.7570
1340557827305,17.8287
1340557887305,17.8117
1340557947305,17.7728
1340558007305,17.8040
1340558067305,17.7504
1340558127305,17.7980
1340558187305,17.7405
1340558247305,17.7843
1340558307305,17.7668
1340558367305,17.7807
1340558427305,17.8278
1340558487305,17.7559
1340558547305,17.8271
1340558607305,17.7881
1340558667305,17.8095
1340558727305,17.8101
1340558787305,17.7526
1340558847305,17.8214
1340558907305,17.8347
1340558967305,17.7901
1340559027305,17.8101
1340559087305,17.8015
1340559147305,17.8160
1340559207305,17.7545
1340559267305,17.7570
1340559327305,17.7777
1340559387305,17.9029
1340559447305,17.8402
1340559507305,17.8054
1340559567305,17.7761
1340559627305,17.8055
1340559687305,17.7812
1340559747305,17.8406
1340559807305,17.7678
1340559867305,17.8478
1340559927305,17.7948
1340559987305,17.8267
1340560047305,17.8122
1340560107305,17.8568
1340560167305,17.8332
1340560227305,17.8610
1340560287305,17.8417
1340560347305,17.8769
1340560407305,17.8494
1340560467305,17.8523
1340560527305,17.8132
1340560587305,17.8088
1340560647305,17.8556
1340560707305,17.8529
1340560767305,17.8193
1340560827315,17.8492
1340560887315,17.7949
1340560947315,17.8296
1340561007315,17.8761
1340561067315,17.8859
1340561127315,17.7763
1340561187315,17.8250
1340561247315,17.8119
1340561307315,17.8540
1340561367315,17.8131
1340561427315,17.8428
1340561487315,17.8099
1340561547315,17.9063
1340561607315,17.8411
1340561667315,17.8276
1340561727315,17.8171
1340561787315,17.8032
1340561847315,17.8105
1340561907315,17.8406
1340561967315,17.7635
1340562027315,17.8213
1340562087315,17.8030
1340562147315,17.8421
1340562207315,17.8263
1340562267315,17.8162
1340562327315,17.8418
1340562387315,17.8268
1340562447315,17.8146